www.pogodaiklimat.ru

Погода и климат >> Архив погоды >> Россия >> Волгоградская область >> Рудня


ПОГОДА в Рудне

  • Прогноз погоды в Рудне
  • Монитор погоды в Рудне

АРХИВ ПОГОДЫ в Рудне

Время (UTC), дата Ветер
(напр.,м/с)
 
Видим.   Явления Облачность Т
(С)
Тd
(С)
f
(%)
Тe
(С)
Тes
(С)
Комфортность P
(гПа)
Po
(гПа)
Тmin
(С)
Tmax
(С)
R
(мм)
R24
(мм)
S
(см)
03 10.09 штиль 0 10 км ясно +6.1 +4.1 87 +5 +5 1030.5 1016.0 +6.0
06 10.09 штиль 0 10 км 6/0
[Ac trans]
+18.1 +7.8 51 +18 +23 1030.1 1016.2
09 10.09 ЮВ 2 10 км 6/6 600 м
[Cb cap]
+25.3 +3.7 25 +24 +28 комфорт 1029.1 1015.5
12 10.09 В 2 10 км 8/5 600 м
[Cb cap Ac trans]
+26.5 +3.0 22 +25 +27 комфорт 1028.2 1014.7
15 10.09 штиль 0 10 км ясно +21.9 +5.1 33 +22 +22 комфорт 1028.5 1014.8 +26.6
18 10.09 штиль 0 10 км ясно +13.4 +6.2 62 +13 +13 1029.5 1015.4
21 10.09 штиль 0 10 км ясно +11.1 +6.5 73 +11 +11 1030.6 1016.3
00 11.09 штиль 0 10 км ясно +9.2 +6.8 85 +8 +8 1031.5 1017.1
03 11.09 штиль 0 10 км 1/0
[Ci fib]
+8.2 +6.1 87 +7 +7 1032.5 1018.0 +8.0
06 11.09 В 1 10 км 3/0
[Ci fib]
+20.0 +8.8 48 +22 +28 комфорт 1032.2 1018.4
09 11.09 В 2 10 км 5/4 600 м
[Cu med, cong Ci fib]
+24.7 +6.0 30 +25 +30 комфорт 1031.7 1018.1
12 11.09 В 2 10 км 3/3 600 м
[Cu med, cong]
+25.5 +4.4 26 +25 +28 комфорт 1030.7 1017.1
15 11.09 В 1 10 км ясно +21.6 +2.0 27 +21 +21 комфорт 1030.7 1016.9 +25.5
18 11.09 ЮВ 1 10 км ясно +13.1 +4.9 57 +13 +13 1031.6 1017.4
21 11.09 штиль 0 10 км ясно +9.0 +4.9 75 +8 +8 1031.9 1017.5
00 12.09 штиль 0 10 км ясно +6.7 +4.5 86 +6 +6 1031.9 1017.3
03 12.09 штиль 0 10 км ясно +5.4 +3.0 85 +4 +4 1032.5 1017.9 +5.2
06 12.09 З 1 10 км ясно +18.1 +6.9 48 +19 +25 1031.7 1017.8
09 12.09 СВ 2 10 км 5/5
[Cu hum]
+25.0 +2.9 24 +24 +29 комфорт 1029.9 1016.3
12 12.09 В 1 10 км 3/3 600 м
[Cu hum]
+26.1 +0.5 19 +24 +29 комфорт 1028.4 1014.8
15 12.09 В 1 10 км ясно +20.9 +2.6 30 +22 +22 комфорт 1028.1 1014.3 +26.5
18 12.09 ЮВ 1 10 км ясно +13.1 +6.6 65 +13 +13 1028.6 1014.5
21 12.09 штиль 0 10 км ясно +9.8 +4.5 70 +9 +9 1028.4 1014.1
00 13.09 штиль 0 10 км ясно +7.8 +5.7 87 +7 +7 1028.0 1013.6
03 13.09 штиль 0 10 км ясно +6.7 +4.3 85 +6 +6 1027.9 1013.4 +6.5
06 13.09 штиль 0 10 км ясно +18.8 +5.8 43 +19 +26 1027.1 1013.3
09 13.09 В 1 10 км 5/5 600 м
[Cu med, cong]
+26.6 +1.0 19 +25 +31 комфорт 1025.2 1011.7
12 13.09 З 1 10 км 5/5 600 м
[Cu med, cong]
+28.2 +0.2 16 +26 +29 жарко 1023.3 1010.0
15 13.09 штиль 0 10 км 4/3 600 м
[Cu med, cong Ac trans]
+22.1 +3.3 29 +22 +22 комфорт 1022.4 1008.8 +28.7
18 13.09 штиль 0 10 км 5/0
[Ac trans]
+13.6 +7.1 65 +13 +13 1023.0 1009.0
21 13.09 штиль 0 10 км 4/0
[Ac trans]
+10.4 +5.7 73 +10 +10 1022.4 1008.2
00 14.09 ЮВ 1 10 км 3/0
[Ac trans]
+8.4 +5.0 79 +8 +8 1021.7 1007.4
03 14.09 ЮВ 1 10 км 5/0
[Ac trans]
+7.0 +3.4 78 +6 +6 1021.2 1006.8 +6.5
06 14.09 ЮВ 1 10 км 1/0
[Ac trans]
+19.9 +5.3 38 +22 +27 комфорт 1020.1 1006.4
09 14.09 З 4
{10}
10 км 8/5 600 м
[Cb cap Ac trans]
+26.9 +0.7 18 +25 +27 комфорт 1017.9 1004.5
12 14.09 З 3
{10}
10 км 9/6 600 м
[Cb cap Ac trans Ci fib]
+27.6 +0.3 17 +25 +26 комфорт 1016.3 1003.0
15 14.09 З 2
{10}
10 км 9/4 600 м
[Sc Ac trans Ci fib]
+24.1 +1.2 22 +23 +23 комфорт 1015.5 1002.0 +28.4
18 14.09 ЮЗ 2 10 км 8/4 600 м
[Sc Ac trans]
+21.2 +1.9 28 +21 +21 комфорт 1014.9 1001.3
21 14.09 СЗ 3 10 км 9/8 600 м
[Cb cap Ac trans]
+16.8 +10.8 68 +17 +17 1017.0 1003.2
00 15.09 СЗ 1 10 км 10/8 600 м
[Cb cap Ac trans]
+13.2 +10.6 84 +13 +13 1016.9 1002.9
03 15.09 З 1 10 км в посл. час ливневой дождь 8/6 600 м
[Cb cap Ac trans]
+11.4 +10.0 91 +11 +11 1017.8 1003.8 +11.4 0.5
06 15.09 СЗ 2 10 км {ливн. осадки} 8/6 600 м
[Cu Sc Ci fib]
+14.9 +10.2 73 +15 +16 1018.4 1004.5 +10.7
09 15.09 З 2 10 км 10/5 600 м
[Cb cap Ac trans Ci fib]
+17.7 +4.0 40 +18 +20 1017.6 1003.8
12 15.09 СЗ 3 10 км 4/4 600 м
[Cb cap]
+17.3 +1.1 34 +17 +20 1017.5 1003.7
15 15.09 С 1 10 км 8/6 600 м
[Cb cap Ac trans]
+15.1 +3.0 44 +16 +16 1017.3 1003.4 +19.2
18 15.09 штиль 0 10 км ясно +7.7 +3.7 76 +7 +7 1018.3 1004.0
21 15.09 штиль 0 10 км 5/0
[Ci fib]
+7.3 +3.2 75 +7 +7 1017.6 1003.3
00 16.09 СЗ 1 10 км 8/0
[Ci fib]
+7.6 +2.2 69 +7 +7 1016.7 1002.4
03 16.09 ЮЗ 2 10 км 10/4 600 м
[Sc Ac trans Ci fib]
+11.9 +1.8 50 +11 +11 1014.8 1000.8 +6.7
06 16.09 З 4 10 км 6/0
[Ac trans Ci fib]
+17.2 +1.2 34 +17 +19 1012.8 999.0
09 16.09 З 5-13
{14}
10 км 4/0
[Ac trans]
+22.0 +1.0 25 +22 +25 комфорт 1009.9 996.4
12 16.09 З 5-13
{14}
10 км 8/0
[Ac trans Ci fib]
+22.8 -0.6 21 +22 +23 комфорт 1007.1 993.7
15 16.09 З 3
{15}
10 км 9/9 600 м
[Cb cap]
+21.8 -0.0 23 +21 +21 комфорт 1006.0 992.6 +23.6
18 16.09 С 1 10 км 9/9 600 м
[Sc]
+18.4 +1.8 33 +20 +20 1007.0 993.4
21 16.09 З 2 10 км 9/9 600 м
[Sc]
+16.9 +5.2 46 +17 +17 1006.6 992.9
00 17.09 З 1 10 км 10/10 600 м
[Sc]
+15.3 +5.7 53 +16 +16 1006.4 992.7

 

Местоположение метеостанции Рудня (Волгоградская область, Россия): широта 50.83 долгота 44.57 высота над уровнем моря 115 м.

В архиве по умолчанию представлена погода в Рудне за последнюю неделю. Архивные данные за месяц целиком и за предыдущие месяцы, начиная с января 2011 года, Вы можете получить, выбрав интересующий диапазон дат из раскрывающегося списка и нажав кнопку "Ввод!".


*Определитесь, кто Вы:
робот инопланетянин человек

Внимание! Время в таблицах - всемирное. Для получения местного времени необходимо прибавить поправку, которая равна 3 ч.

Смотрите также архив погоды в соседних городах и на ближайших метеорологических станциях:

Погода в Даниловке (Волгоградская область, Россия) (60 км)
Погода в Елани (Волгоградская область, Россия) (60 км)
Погода в Сплавнухе (Саратовская область, Россия) (63 км)
Погода в Калининске (Саратовская область, Россия) (72 км)
Погода в Камышине (Волгоградская область, Россия) (102 км)
Погода в Ольховке (Волгоградская область, Россия) (107 км)
Погода в Октябрьском Городке (Саратовская область, Россия) (108 км)
Погода в Аткарске (Саратовская область, Россия) (120 км)
Погода в Михайловке (Волгоградская область, Россия) (124 км)
Погода в Балашове (Саратовская область, Россия) (127 км)

Пояснения к столбцам:

Ветер - указаны скорость ветра в м/с - средняя за 10 мин, порывы в срок и между сроками (в фигурных скобках) и направление, откуда дует ветер: С - северный, СВ - северо-восточный, В - восточный, ЮВ - юго-восточный, Ю - южный, ЮЗ - юго-западный, З - западный, СЗ - северо-западный.
Видимость - горизонтальная дальность видимости в метрах или километрах. При видимости от 1 до 10 км при отсутствии осадков обычно наблюдается дымка, при ухудшении видимости до 1 км и менее - туман. В сухую погоду видимость может ухудшаться дымом, пылью или мглою.
Явления - указаны атмосферные явления, наблюдавшиеся в срок или в последний час перед сроком; фигурными скобками обозначены явления, наблюдавшиеся между сроками (за 1-3 часа до срока); квадратными скобками обозначены град или гололедные отложения с указанием их диаметра в мм.
Облачность - указаны через наклонную черту общая и нижняя облачность в баллах и высота нижней границы облаков в метрах; квадратными скобками обозначены формы облаков: Ci - перистые, Cs - перисто-слоистые, Cc - перисто-кучевые, Ac - высококучевые, As - высокослоистые, Sc - слоисто-кучевые, Ns - слоисто-дождевые, Cu - кучевые, Cb - кучево-дождевые. Подробнее классификацию облаков см. в Атласе облаков (PDF).
T - Температура воздуха - температура, измеренная на высоте 2 м над землей.
Td - Температура точки росы - температура, при понижении до которой содержащийся в воздухе водяной пар достигнет насыщения.
f - Относительная влажность воздуха - влажноcть воздуха, измеренная на высоте 2 м над землей.
Te - Эффективная температура - температура, которую ощущает одетый по сезону человек в тени. Характеристика душности погоды. При расчете учитывается влияние влажности воздуха и скорости ветра на теплоощущения человека.
Tes - Эффективная температура на солнце - температура, которую ощущает человек, с поправкой на солнечный нагрев. Характеристика знойности погоды. Зависит от высоты солнца над горизонтом, облачности и скорости ветра. Ночью, в пасмурную погоду, а также при ветре 12 м/с и более поправка равна нулю.
P - Атмосферное давление - приведенное к уровню моря атмосферное давление.
Po - Атмосферное давление - измеренное на уровне метеостанции атмосферное давление.
Tmin - Минимальная температура - минимум температуры воздуха на высоте 2 м над землей.
Tmax - Максимальная температура - максимум температуры воздуха на высоте 2 м над землей.
R - Количество осадков - Количество выпавших осадков за период времени, мм. При наведении курсора мыши на число - период времени, за который выпало указанное количество осадков.
R24 - Количество осадков - Количество выпавших осадков за 24 часа, мм.
S - Снежный покров - Высота снежного покрова, см. При наведении курсора мыши на число - состояние снежного покрова и степень покрытия местности в баллах.